Location: Plainartige
(45.6866°N, 1.7993°E)
Time: 21:00:21
(UTC+00:00)

Cosmos 2333 Rocket - Pass Details

Date: 03 March 2021
Orbit: 837 x 864 km, 70.8° (Epoch: 13 April)

Event Time Altitude Azimuth Distance (km) Brightness Sun altitude
Rises 20:29:55 0° 221° (SW) 3,390 5.6 -29.5°
Reaches altitude 10° 20:32:25 10° 226° (SW) 2,463 4.8 -29.9°
Maximum altitude 20:37:55 51° 302° (WNW) 1,060 2.9 -30.7°
Drops below altitude 10° 20:43:30 10° 18° (NNE) 2,495 4.7 -31.6°
Sets 20:46:04 0° 24° (NNE) 3,439 5.4 -32.0°
